Colby, KS

5:24 AM CDT on April 24, 2017 (GMT -0500)
Shaltz

Weather History for KCBK - December, 2013

Change the Weather History Date:

Thursday, December 5, 2013

  Actual Average (KGLD) Record (KGLD)
Temperature  
Mean Temperature 7 °F -  
Max Temperature 14 °F 46 °F 75 °F (1939)
Min Temperature 0 °F 20 °F -8 °F (1972)
Degree Days  
Heating Degree Days 58    
Moisture  
Dew Point 0 °F    
Average Humidity 68    
Maximum Humidity 85    
Minimum Humidity 57    
Precipitation  
Precipitation 0.00 in - - ()
Sea Level Pressure  
Sea Level Pressure 30.20 in    
Wind  
Wind Speed 9 mph (North)    
Max Wind Speed 14 mph    
Max Gust Speed 20 mph    
Visibility 10 miles    
Events      
Averages and records for this station are not official NWS values.
T = Trace of Precipitation, MM = Missing Value Source: NWS Daily Summary

Daily Weather History Graph

Daily Weather History Graph

Search for Another Location

Airport or City:

Trip Planner

Search our weather history database for the weather conditions in past years. The results will help you decide how hot, cold, wet, or windy it might be!

Date:

Astronomy

Dec. 05, 2013 Rise Set
Actual Time 7:49 AM CST 5:20 PM CST
Civil Twilight 7:19 AM CST 5:50 PM CST
Nautical Twilight 6:45 AM CST 6:23 PM CST
Astronomical Twilight 6:13 AM CST 6:56 PM CST
Moon 10:11 AM CST (12/5) 8:42 PM CST (12/5)
Length of Visible Light 10h 30m
Length of Day
9h 31m
Waxing Crescent, 11% of the Moon is Illuminated
Dec 5
Waxing Crescent
Dec 9
First Quarter
Dec 17
Full
Dec 25
Last Quarter
Jan 1
New

Hourly Weather History & Observations

Time (CST) Temp. Windchill Dew Point Humidity Pressure Visibility Wind Dir Wind Speed Gust Speed Precip Events Conditions
12:15 AM 10.4 °F -4.1 °F 3.2 °F 73% 30.14 in 10.0 mi NW 11.5 mph - N/A   Mostly Cloudy
12:35 AM 8.6 °F -6.3 °F 3.2 °F 79% 30.15 in 10.0 mi NW 11.5 mph - N/A   Scattered Clouds
12:55 AM 8.6 °F -7.0 °F 3.2 °F 79% 30.15 in 10.0 mi NW 12.7 mph - N/A   Clear
1:15 AM 8.6 °F -4.7 °F 1.4 °F 73% 30.16 in 10.0 mi NW 9.2 mph - N/A   Clear
1:35 AM 6.8 °F -8.6 °F 1.4 °F 79% 30.15 in 10.0 mi NW 11.5 mph 19.6 mph N/A   Clear
1:55 AM 6.8 °F -6.9 °F 1.4 °F 79% 30.15 in 10.0 mi NW 9.2 mph - N/A   Clear
2:15 AM 5.0 °F -10.8 °F 1.4 °F 85% 30.16 in 10.0 mi NW 11.5 mph - N/A   Clear
2:35 AM 5.0 °F -12.3 °F -0.4 °F 78% 30.16 in 10.0 mi NW 13.8 mph - N/A   Clear
2:55 AM 5.0 °F -12.3 °F -0.4 °F 78% 30.16 in 10.0 mi NW 13.8 mph 19.6 mph N/A   Clear
3:15 AM 5.0 °F -12.3 °F -0.4 °F 78% 30.16 in 10.0 mi NNW 13.8 mph - N/A   Clear
3:35 AM 5.0 °F -9.1 °F -0.4 °F 78% 30.18 in 10.0 mi NW 9.2 mph - N/A   Clear
3:55 AM 5.0 °F -8.1 °F -0.4 °F 78% 30.18 in 10.0 mi NW 8.1 mph - N/A   Clear
4:15 AM 3.2 °F -11.3 °F -0.4 °F 85% 30.17 in 10.0 mi NW 9.2 mph - N/A   Clear
4:35 AM 3.2 °F -11.3 °F -0.4 °F 85% 30.17 in 10.0 mi NW 9.2 mph - N/A   Clear
4:55 AM 1.4 °F -11.3 °F -2.2 °F 85% 30.17 in 10.0 mi NW 6.9 mph - N/A   Clear
5:15 AM 1.4 °F -8.3 °F -2.2 °F 85% 30.18 in 10.0 mi NW 4.6 mph - N/A   Clear
5:35 AM 1.4 °F -8.3 °F -2.2 °F 85% 30.18 in 10.0 mi NW 4.6 mph - N/A   Clear
5:55 AM 1.4 °F - -2.2 °F 85% 30.20 in 10.0 mi Calm Calm - N/A   Clear
6:15 AM 1.4 °F -6.2 °F -4.0 °F 78% 30.20 in 10.0 mi WNW 3.5 mph - N/A   Clear
6:35 AM -0.4 °F -15.7 °F -4.0 °F 85% 30.19 in 10.0 mi NW 9.2 mph - N/A   Clear
6:55 AM 1.4 °F -11.3 °F -2.2 °F 85% 30.19 in 10.0 mi NW 6.9 mph - N/A   Clear
7:15 AM 1.4 °F -14.5 °F -2.2 °F 85% 30.18 in 10.0 mi NW 10.4 mph - N/A   Clear
7:35 AM 3.2 °F -12.2 °F -0.4 °F 85% 30.19 in 10.0 mi NNW 10.4 mph - N/A   Clear
7:55 AM 3.2 °F -11.3 °F -0.4 °F 85% 30.20 in 10.0 mi NW 9.2 mph - N/A   Clear
8:15 AM 5.0 °F -10.0 °F -0.4 °F 78% 30.20 in 10.0 mi NW 10.4 mph - N/A   Clear
8:35 AM 5.0 °F -8.1 °F -0.4 °F 78% 30.23 in 10.0 mi NNW 8.1 mph - N/A   Clear
8:55 AM 5.0 °F -10.8 °F -0.4 °F 78% 30.22 in 10.0 mi NNW 11.5 mph - N/A   Clear
9:15 AM 6.8 °F -6.9 °F -0.4 °F 72% 30.24 in 10.0 mi NNW 9.2 mph - N/A   Clear
9:35 AM 6.8 °F -6.9 °F -0.4 °F 72% 30.24 in 10.0 mi NNW 9.2 mph - N/A   Clear
9:55 AM 8.6 °F -5.5 °F -0.4 °F 67% 30.25 in 10.0 mi NW 10.4 mph - N/A   Clear
10:15 AM 8.6 °F -3.7 °F -0.4 °F 67% 30.26 in 10.0 mi NW 8.1 mph - N/A   Clear
10:35 AM 8.6 °F -3.7 °F -0.4 °F 67% 30.26 in 10.0 mi NW 8.1 mph - N/A   Clear
10:55 AM 10.4 °F -0.4 °F -0.4 °F 62% 30.26 in 10.0 mi NNW 6.9 mph - N/A   Clear
11:15 AM 10.4 °F -2.4 °F 1.4 °F 67% 30.24 in 10.0 mi North 9.2 mph - N/A   Clear
11:35 AM 12.2 °F -0.2 °F 1.4 °F 62% 30.22 in 10.0 mi NNW 9.2 mph - N/A   Clear
11:55 AM 12.2 °F -1.8 °F 1.4 °F 62% 30.20 in 10.0 mi North 11.5 mph - N/A   Clear
12:15 PM 12.2 °F -0.2 °F 1.4 °F 62% 30.20 in 10.0 mi NNW 9.2 mph - N/A   Clear
12:35 PM 12.2 °F 1.7 °F 1.4 °F 62% 30.20 in 10.0 mi North 6.9 mph - N/A   Clear
12:55 PM 12.2 °F -1.8 °F 1.4 °F 62% 30.18 in 10.0 mi North 11.5 mph - N/A   Clear
1:15 PM 12.2 °F -1.0 °F 1.4 °F 62% 30.17 in 10.0 mi NNE 10.4 mph - N/A   Clear
1:35 PM 12.2 °F -0.2 °F 1.4 °F 62% 30.16 in 10.0 mi North 9.2 mph - N/A   Scattered Clouds
1:55 PM 12.2 °F -1.0 °F 1.4 °F 62% 30.16 in 10.0 mi North 10.4 mph - N/A   Overcast
2:15 PM 14.0 °F 2.0 °F 1.4 °F 57% 30.15 in 10.0 mi NNE 9.2 mph - N/A   Overcast
2:35 PM 12.2 °F -1.0 °F 1.4 °F 62% 30.14 in 10.0 mi North 10.4 mph - N/A   Overcast
2:55 PM 14.0 °F 2.0 °F 1.4 °F 57% 30.15 in 10.0 mi NNE 9.2 mph - N/A   Overcast
3:15 PM 14.0 °F 2.0 °F 1.4 °F 57% 30.15 in 10.0 mi NE 9.2 mph - N/A   Overcast
3:35 PM 14.0 °F 2.9 °F 1.4 °F 57% 30.16 in 10.0 mi NNE 8.1 mph - N/A   Overcast
3:55 PM 14.0 °F 2.0 °F 1.4 °F 57% 30.16 in 10.0 mi NNE 9.2 mph - N/A   Overcast
4:15 PM 14.0 °F 3.9 °F 1.4 °F 57% 30.18 in 10.0 mi NNE 6.9 mph - N/A   Overcast
4:35 PM 14.0 °F 2.0 °F 1.4 °F 57% 30.18 in 10.0 mi NE 9.2 mph - N/A   Overcast
4:55 PM 14.0 °F 2.9 °F 1.4 °F 57% 30.18 in 10.0 mi NNE 8.1 mph - N/A   Overcast
5:15 PM 12.2 °F -0.2 °F 1.4 °F 62% 30.18 in 10.0 mi NE 9.2 mph - N/A   Overcast
5:35 PM 12.2 °F -0.2 °F 1.4 °F 62% 30.17 in 10.0 mi NE 9.2 mph - N/A   Overcast
5:55 PM 12.2 °F 1.7 °F 1.4 °F 62% 30.18 in 10.0 mi NE 6.9 mph - N/A   Overcast
6:15 PM 12.2 °F 1.7 °F 1.4 °F 62% 30.18 in 10.0 mi NE 6.9 mph - N/A   Overcast
6:35 PM 12.2 °F 2.9 °F 1.4 °F 62% 30.18 in 10.0 mi ENE 5.8 mph - N/A   Overcast
6:55 PM 12.2 °F 1.7 °F 1.4 °F 62% 30.18 in 10.0 mi NE 6.9 mph - N/A   Overcast
7:15 PM 12.2 °F 2.9 °F 1.4 °F 62% 30.20 in 10.0 mi ENE 5.8 mph - N/A   Overcast
7:35 PM 12.2 °F 1.7 °F 1.4 °F 62% 30.20 in 10.0 mi ENE 6.9 mph - N/A   Overcast
7:55 PM 12.2 °F 4.3 °F 1.4 °F 62% 30.21 in 10.0 mi East 4.6 mph - N/A   Overcast
8:15 PM 12.2 °F 4.3 °F 1.4 °F 62% 30.23 in 10.0 mi East 4.6 mph - N/A   Overcast
8:35 PM 12.2 °F 4.3 °F 1.4 °F 62% 30.23 in 10.0 mi ENE 4.6 mph - N/A   Overcast
8:55 PM 12.2 °F 6.1 °F -0.4 °F 57% 30.24 in 10.0 mi ENE 3.5 mph - N/A   Overcast
9:15 PM 12.2 °F 4.3 °F -0.4 °F 57% 30.24 in 10.0 mi ENE 4.6 mph - N/A   Overcast
9:35 PM 12.2 °F 4.3 °F -0.4 °F 57% 30.24 in 10.0 mi ENE 4.6 mph - N/A   Overcast
9:55 PM 12.2 °F 6.1 °F -0.4 °F 57% 30.25 in 10.0 mi East 3.5 mph - N/A   Overcast
10:10 PM 12.2 °F 4.3 °F -0.4 °F 57% 30.25 in 10.0 mi East 4.6 mph - N/A   Overcast
10:30 PM 12.2 °F 2.9 °F -0.4 °F 57% 30.26 in 10.0 mi ENE 5.8 mph - N/A   Overcast
10:55 PM 12.2 °F 1.7 °F -0.4 °F 57% 30.26 in 10.0 mi ENE 6.9 mph - N/A   Overcast
11:15 PM 12.2 °F -1.0 °F -0.4 °F 57% 30.26 in 10.0 mi East 10.4 mph - N/A   Overcast
11:35 PM 12.2 °F -1.0 °F -0.4 °F 57% 30.26 in 10.0 mi East 10.4 mph - N/A   Overcast
11:55 PM 12.2 °F 0.7 °F -0.4 °F 57% 30.27 in 10.0 mi East 8.1 mph - N/A   Overcast